Time,TemperatureF,DewpointF,PressureIn,WindDirection,WindDirectionDegrees,WindSpeedMPH,WindSpeedGustMPH,Humidity,HourlyPrecipIn,Conditions,Clouds,dailyrainin,SoftwareType,DateUTC
2013-03-24 00:02:00,50.8,50.0,29.84,NE,49,3.0,-999.0,96,-99.99,,,0.00,weatherlink.com 1.10,2013-03-24 05:02:00,
2013-03-24 00:17:00,50.8,50.0,29.82,East,82,4.0,-999.0,96,-99.99,,,0.00,weatherlink.com 1.10,2013-03-24 05:17:00,
2013-03-24 00:32:00,50.8,50.0,29.78,ESE,119,9.0,-999.0,96,-99.99,,,0.00,weatherlink.com 1.10,2013-03-24 05:32:00,
2013-03-24 00:47:00,51.3,51.0,29.73,SSE,148,9.0,-999.0,97,-99.99,,,0.00,weatherlink.com 1.10,2013-03-24 05:47:00,
2013-03-24 01:02:00,51.6,51.0,29.68,ESE,102,14.0,-999.0,96,-99.99,,,0.00,weatherlink.com 1.10,2013-03-24 06:02:00,
2013-03-24 01:17:00,51.7,51.0,29.72,SE,130,13.0,-999.0,96,-99.99,,,0.00,weatherlink.com 1.10,2013-03-24 06:17:00,
2013-03-24 01:32:00,51.7,50.0,29.71,ESE,123,11.0,-999.0,95,-99.99,,,0.00,weatherlink.com 1.10,2013-03-24 06:32:00,
2013-03-24 01:47:00,51.6,50.0,29.72,East,93,0.0,-999.0,95,-99.99,,,0.00,weatherlink.com 1.10,2013-03-24 06:47:00,
2013-03-24 02:02:00,51.5,50.0,29.71,SE,140,8.0,-999.0,95,-99.99,,,0.00,weatherlink.com 1.10,2013-03-24 07:02:00,
2013-03-24 02:17:00,51.4,50.0,29.72,ESE,121,4.0,-999.0,95,-99.99,,,0.00,weatherlink.com 1.10,2013-03-24 07:17:00,
2013-03-24 02:35:00,51.2,50.0,29.71,SE,140,12.0,-999.0,94,-99.99,,,0.00,weatherlink.com 1.10,2013-03-24 07:35:00,
2013-03-24 02:47:00,51.3,50.0,29.70,East,84,10.0,-999.0,94,-99.99,,,0.00,weatherlink.com 1.10,2013-03-24 07:47:00,
2013-03-24 03:03:00,51.2,50.0,29.73,ESE,119,2.0,-999.0,94,-99.99,,,0.00,weatherlink.com 1.10,2013-03-24 08:03:00,
2013-03-24 03:17:00,51.0,50.0,29.76,NNW,347,4.0,-999.0,95,-99.99,,,0.00,weatherlink.com 1.10,2013-03-24 08:17:00,
2013-03-24 03:32:00,51.2,50.0,29.78,NW,315,2.0,-999.0,95,-99.99,,,0.00,weatherlink.com 1.10,2013-03-24 08:32:00,
2013-03-24 03:48:00,51.0,50.0,29.75,NW,316,3.0,-999.0,95,-99.99,,,0.00,weatherlink.com 1.10,2013-03-24 08:48:00,
2013-03-24 04:03:00,50.9,50.0,29.74,East,100,0.0,-999.0,96,-99.99,,,0.00,weatherlink.com 1.10,2013-03-24 09:03:00,
2013-03-24 04:18:00,50.8,50.0,29.72,East,100,0.0,-999.0,96,-99.99,,,0.00,weatherlink.com 1.10,2013-03-24 09:18:00,
2013-03-24 04:33:00,50.4,49.0,29.68,East,92,4.0,-999.0,96,-99.99,,,0.00,weatherlink.com 1.10,2013-03-24 09:33:00,
2013-03-24 04:48:00,50.0,49.0,29.66,East,97,2.0,-999.0,96,-99.99,,,0.00,weatherlink.com 1.10,2013-03-24 09:48:00,
2013-03-24 05:03:00,49.8,49.0,29.68,East,98,0.0,-999.0,96,-99.99,,,0.00,weatherlink.com 1.10,2013-03-24 10:03:00,
2013-03-24 05:18:00,49.5,48.0,29.68,East,98,2.0,-999.0,96,-99.99,,,0.00,weatherlink.com 1.10,2013-03-24 10:18:00,
2013-03-24 05:33:00,49.5,49.0,29.67,ESE,103,2.0,-999.0,97,-99.99,,,0.00,weatherlink.com 1.10,2013-03-24 10:33:00,
2013-03-24 05:48:00,49.4,48.0,29.67,SE,137,0.0,-999.0,96,-99.99,,,0.00,weatherlink.com 1.10,2013-03-24 10:48:00,
2013-03-24 06:03:00,49.2,48.0,29.66,SE,130,2.0,-999.0,96,-99.99,,,0.00,weatherlink.com 1.10,2013-03-24 11:03:00,
2013-03-24 06:18:00,49.0,48.0,29.67,East,101,2.0,-999.0,96,-99.99,,,0.00,weatherlink.com 1.10,2013-03-24 11:18:00,
2013-03-24 06:33:00,49.0,48.0,29.67,SE,128,2.0,-999.0,96,-99.99,,,0.00,weatherlink.com 1.10,2013-03-24 11:33:00,
2013-03-24 06:48:00,49.1,48.0,29.67,SE,131,5.0,-999.0,95,-99.99,,,0.00,weatherlink.com 1.10,2013-03-24 11:48:00,
2013-03-24 07:03:00,49.1,48.0,29.66,SE,138,2.0,-999.0,95,-99.99,,,0.00,weatherlink.com 1.10,2013-03-24 12:03:00,
2013-03-24 07:18:00,49.4,48.0,29.66,SSE,147,5.0,-999.0,94,-99.99,,,0.00,weatherlink.com 1.10,2013-03-24 12:18:00,
2013-03-24 07:33:00,49.8,48.0,29.67,SE,134,2.0,-999.0,93,-99.99,,,0.00,weatherlink.com 1.10,2013-03-24 12:33:00,
2013-03-24 07:48:00,50.5,48.0,29.67,SE,129,2.0,-999.0,92,-99.99,,,0.00,weatherlink.com 1.10,2013-03-24 12:48:00,
2013-03-24 08:03:00,51.0,49.0,29.69,ESE,121,0.0,-999.0,92,-99.99,,,0.00,weatherlink.com 1.10,2013-03-24 13:03:00,
2013-03-24 08:18:00,51.1,49.0,29.68,SSE,159,2.0,-999.0,91,-99.99,,,0.00,weatherlink.com 1.10,2013-03-24 13:18:00,
2013-03-24 08:33:00,51.2,48.0,29.70,SSE,158,0.0,-999.0,90,-99.99,,,0.00,weatherlink.com 1.10,2013-03-24 13:33:00,
2013-03-24 08:48:00,51.3,49.0,29.71,SSE,158,5.0,-999.0,91,-99.99,,,0.00,weatherlink.com 1.10,2013-03-24 13:48:00,
2013-03-24 09:03:00,51.7,49.0,29.71,SW,221,0.0,-999.0,90,-99.99,,,0.00,weatherlink.com 1.10,2013-03-24 14:03:00,
2013-03-24 09:18:00,52.4,49.0,29.68,SSE,161,5.0,-999.0,89,-99.99,,,0.00,weatherlink.com 1.10,2013-03-24 14:18:00,
2013-03-24 09:33:00,54.3,51.0,29.68,SE,138,7.0,-999.0,87,-99.99,,,0.00,weatherlink.com 1.10,2013-03-24 14:33:00,
2013-03-24 09:48:00,55.3,51.0,29.68,SE,142,5.0,-999.0,84,-99.99,,,0.00,weatherlink.com 1.10,2013-03-24 14:48:00,
2013-03-24 10:03:00,56.2,51.0,29.67,SE,138,2.0,-999.0,83,-99.99,,,0.00,weatherlink.com 1.10,2013-03-24 15:03:00,
2013-03-24 10:18:00,56.8,51.0,29.66,SE,134,2.0,-999.0,81,-99.99,,,0.00,weatherlink.com 1.10,2013-03-24 15:18:00,
2013-03-24 10:33:00,57.4,52.0,29.66,SE,134,4.0,-999.0,81,-99.99,,,0.00,weatherlink.com 1.10,2013-03-24 15:33:00,
2013-03-24 10:48:00,58.6,52.0,29.66,SE,136,0.0,-999.0,79,-99.99,,,0.00,weatherlink.com 1.10,2013-03-24 15:48:00,
2013-03-24 11:03:00,58.2,52.0,29.65,SE,143,0.0,-999.0,80,-99.99,,,0.00,weatherlink.com 1.10,2013-03-24 16:03:00,
2013-03-24 11:18:00,58.4,52.0,29.66,SW,223,3.0,-999.0,80,-99.99,,,0.00,weatherlink.com 1.10,2013-03-24 16:18:00,
2013-03-24 11:33:00,58.1,52.0,29.67,SW,227,5.0,-999.0,81,-99.99,,,0.00,weatherlink.com 1.10,2013-03-24 16:33:00,
2013-03-24 11:48:00,59.1,53.0,29.66,SW,217,1.0,-999.0,81,-99.99,,,0.00,weatherlink.com 1.10,2013-03-24 16:48:00,
2013-03-24 12:03:00,59.3,53.0,29.65,SW,216,3.0,-999.0,79,-99.99,,,0.00,weatherlink.com 1.10,2013-03-24 17:03:00,
2013-03-24 12:18:00,59.3,53.0,29.64,SSW,212,0.0,-999.0,79,-99.99,,,0.00,weatherlink.com 1.10,2013-03-24 17:18:00,
2013-03-24 12:33:00,59.1,53.0,29.64,South,189,0.0,-999.0,80,-99.99,,,0.00,weatherlink.com 1.10,2013-03-24 17:33:00,
2013-03-24 12:48:00,61.6,54.0,29.62,SW,230,0.0,-999.0,77,-99.99,,,0.00,weatherlink.com 1.10,2013-03-24 17:48:00,
2013-03-24 13:03:00,60.7,54.0,29.62,SW,232,7.0,-999.0,79,-99.99,,,0.00,weatherlink.com 1.10,2013-03-24 18:03:00,
2013-03-24 13:18:00,60.1,54.0,29.61,WSW,240,7.0,-999.0,80,-99.99,,,0.01,weatherlink.com 1.10,2013-03-24 18:18:00,
2013-03-24 13:33:00,59.6,54.0,29.60,SW,235,6.0,-999.0,81,-99.99,,,0.01,weatherlink.com 1.10,2013-03-24 18:33:00,
2013-03-24 13:48:00,58.6,53.0,29.60,SW,225,9.0,-999.0,82,-99.99,,,0.01,weatherlink.com 1.10,2013-03-24 18:48:00,
2013-03-24 14:03:00,58.2,53.0,29.59,WSW,240,5.0,-999.0,83,-99.99,,,0.01,weatherlink.com 1.10,2013-03-24 19:03:00,
2013-03-24 14:19:00,58.2,53.0,29.59,WSW,249,7.0,-999.0,84,-99.99,,,0.01,weatherlink.com 1.10,2013-03-24 19:19:00,
2013-03-24 14:34:00,58.7,54.0,29.57,WSW,242,9.0,-999.0,84,-99.99,,,0.01,weatherlink.com 1.10,2013-03-24 19:34:00,
2013-03-24 14:49:00,58.6,54.0,29.57,SW,236,11.0,-999.0,84,-99.99,,,0.01,weatherlink.com 1.10,2013-03-24 19:49:00,
2013-03-24 15:04:00,58.4,54.0,29.56,SW,227,12.0,-999.0,85,-99.99,,,0.01,weatherlink.com 1.10,2013-03-24 20:04:00,
2013-03-24 15:19:00,57.9,54.0,29.56,WSW,252,12.0,-999.0,87,-99.99,,,0.01,weatherlink.com 1.10,2013-03-24 20:19:00,
2013-03-24 15:34:00,56.9,54.0,29.57,West,273,16.0,-999.0,90,-99.99,,,0.01,weatherlink.com 1.10,2013-03-24 20:34:00,
2013-03-24 15:49:00,53.1,49.0,29.60,West,273,23.0,-999.0,87,-99.99,,,0.01,weatherlink.com 1.10,2013-03-24 20:49:00,
2013-03-24 16:04:00,52.5,49.0,29.61,WNW,291,16.0,-999.0,87,-99.99,,,0.01,weatherlink.com 1.10,2013-03-24 21:04:00,
2013-03-24 16:19:00,52.4,47.0,29.62,WNW,290,22.0,-999.0,83,-99.99,,,0.01,weatherlink.com 1.10,2013-03-24 21:19:00,
2013-03-24 16:34:00,52.0,46.0,29.64,West,278,19.0,-999.0,81,-99.99,,,0.01,weatherlink.com 1.10,2013-03-24 21:34:00,
2013-03-24 16:49:00,52.4,46.0,29.63,WNW,288,12.0,-999.0,78,-99.99,,,0.01,weatherlink.com 1.10,2013-03-24 21:49:00,
2013-03-24 17:04:00,52.7,46.0,29.63,West,281,13.0,-999.0,78,-99.99,,,0.01,weatherlink.com 1.10,2013-03-24 22:04:00,
2013-03-24 17:19:00,52.6,44.0,29.64,West,273,13.0,-999.0,73,-99.99,,,0.01,weatherlink.com 1.10,2013-03-24 22:19:00,
2013-03-24 17:34:00,52.8,44.0,29.63,West,264,18.0,-999.0,72,-99.99,,,0.01,weatherlink.com 1.10,2013-03-24 22:34:00,
2013-03-24 17:49:00,52.4,44.0,29.65,West,271,24.0,-999.0,72,-99.99,,,0.01,weatherlink.com 1.10,2013-03-24 22:49:00,
2013-03-24 18:04:00,52.2,41.0,29.65,West,279,22.0,-999.0,66,-99.99,,,0.01,weatherlink.com 1.10,2013-03-24 23:04:00,
2013-03-24 18:19:00,50.5,38.0,29.67,WNW,292,18.0,-999.0,63,-99.99,,,0.01,weatherlink.com 1.10,2013-03-24 23:19:00,
2013-03-24 18:40:00,-999.0,-99.9,0.00,North,-999,-999.0,-999.0,-999,-99.99,,,0.00,weatherlink.com 1.10,2013-03-24 23:40:00,
2013-03-24 18:50:00,-999.0,-99.9,29.72,WNW,298,33.0,-999.0,-999,-99.99,,,0.00,weatherlink.com 1.10,2013-03-24 23:50:00,
2013-03-24 19:05:00,45.4,35.0,29.73,WNW,288,21.0,-999.0,66,-99.99,,,0.00,weatherlink.com 1.10,2013-03-25 00:05:00,
2013-03-24 19:20:00,44.2,33.0,29.76,WNW,294,25.0,-999.0,66,-99.99,,,0.00,weatherlink.com 1.10,2013-03-25 00:20:00,
2013-03-24 19:35:00,43.1,32.0,29.77,WNW,303,16.0,-999.0,66,-99.99,,,0.00,weatherlink.com 1.10,2013-03-25 00:35:00,
2013-03-24 19:50:00,42.6,33.0,29.78,WNW,289,17.0,-999.0,68,-99.99,,,0.00,weatherlink.com 1.10,2013-03-25 00:50:00,
2013-03-24 20:05:00,42.0,32.0,29.79,WNW,288,19.0,-999.0,67,-99.99,,,0.00,weatherlink.com 1.10,2013-03-25 01:05:00,
2013-03-24 20:20:00,41.6,32.0,29.80,WSW,258,23.0,-999.0,69,-99.99,,,0.00,weatherlink.com 1.10,2013-03-25 01:20:00,
2013-03-24 20:35:00,41.3,32.0,29.80,West,264,11.0,-999.0,69,-99.99,,,0.00,weatherlink.com 1.10,2013-03-25 01:35:00,
2013-03-24 20:50:00,41.1,32.0,29.82,WNW,299,17.0,-999.0,70,-99.99,,,0.00,weatherlink.com 1.10,2013-03-25 01:50:00,
2013-03-24 21:05:00,40.9,32.0,29.82,NW,315,12.0,-999.0,71,-99.99,,,0.00,weatherlink.com 1.10,2013-03-25 02:05:00,
2013-03-24 21:20:00,40.9,31.0,29.82,WNW,300,12.0,-999.0,69,-99.99,,,0.00,weatherlink.com 1.10,2013-03-25 02:20:00,
2013-03-24 21:35:00,40.8,31.0,29.83,West,281,15.0,-999.0,68,-99.99,,,0.00,weatherlink.com 1.10,2013-03-25 02:35:00,
2013-03-24 21:50:00,40.6,30.0,29.84,WNW,296,15.0,-999.0,67,-99.99,,,0.00,weatherlink.com 1.10,2013-03-25 02:50:00,
2013-03-24 22:05:00,40.3,30.0,29.84,WNW,291,15.0,-999.0,67,-99.99,,,0.00,weatherlink.com 1.10,2013-03-25 03:05:00,
2013-03-24 22:20:00,39.8,30.0,29.84,West,267,20.0,-999.0,68,-99.99,,,0.00,weatherlink.com 1.10,2013-03-25 03:20:00,
2013-03-24 22:35:00,39.5,30.0,29.85,West,276,14.0,-999.0,68,-99.99,,,0.00,weatherlink.com 1.10,2013-03-25 03:35:00,
2013-03-24 22:50:00,39.2,29.0,29.86,NW,316,18.0,-999.0,68,-99.99,,,0.00,weatherlink.com 1.10,2013-03-25 03:50:00,
2013-03-24 23:05:00,39.1,30.0,29.86,NW,317,16.0,-999.0,69,-99.99,,,0.00,weatherlink.com 1.10,2013-03-25 04:05:00,
2013-03-24 23:20:00,38.8,30.0,29.87,West,280,15.0,-999.0,70,-99.99,,,0.00,weatherlink.com 1.10,2013-03-25 04:20:00,
2013-03-24 23:35:00,38.6,29.0,29.87,NW,318,14.0,-999.0,68,-99.99,,,0.00,weatherlink.com 1.10,2013-03-25 04:35:00,
2013-03-24 23:50:00,38.4,28.0,29.87,NW,309,14.0,-999.0,66,-99.99,,,0.00,weatherlink.com 1.10,2013-03-25 04:50:00,